SL-8 R/B

Satellite information

Favourite Embed

Satellite Type and Status

ROCKET BODYIN ORBIT

Key statistics

Satellite SL-8 R/B at a glance.

Uptime

16894

Days in orbit

Revolutions

≈ 13.8

Per day

Orbit

LEO

Low Earth Orbit

Inclination

82.9

Latest

Satellite identification and parameters

Extended collection of information and parameters for SL-8 R/B.

Object identification

Identified? True

Debris? False

Object name: SL-8 R/B

International designator: 1979-028B

Object number (NORAD): 11321

Object ID (CCSDS): 11321

Country: COMMONWEALTH OF INDEPENDENT STATES (CIS)

Current information (Y/N): Y

RCS size: LARGE

Orbital parameters

Period: 104.592 minutes

Inclination: 82.9238 deg

SMA: 7353.492 km

Apoapsis: 988.203 km

Periapsis: 962.512 km

RAAN: 350.7613 deg

Eccentricy: 0.0017469

Argument of periapsis: 281.2301 deg

Mean anomaly: 190.9541 deg

Mean motion: 13.76772846 rev/day

Mean motion (dot): 0.00000105 rev/day2

B* drag term: 0.000091348 1/REarth

Two-line elements (TLE)

Creation date: July 8, 2025, 2:27 a.m.

Reference frame: TEME

Reference center: EARTH

Epoch: July 7, 2025, 10:58 p.m. UTC

TLE line 0: 0 SL-8 R/B

TLE line 1: 1 11321U 79028B 25188.95712219 .00000105 00000-0 91348-4 0 9999

TLE line 2: 2 11321 82.9238 350.7613 0017469 281.2301 190.9541 13.76772846322615

Live tracking on map

Real-time ground track for satellite SL-8 R/B.

In-orbit conjunctions

A list of the most updated potential collisions computed for object SL-8 R/B.

Target Orbit TCA Probability of collision Miss distance Type
COSMOS 928 LEO 2025-01-14 19:44:38 0.000600538 160.0 (m) PAYLOAD
THOR ABLESTAR DEB LEO 2024-09-20 00:00:50 0.0002628033 185.0 (m) DEBRIS

Associated space launch

Navigation satellite providing location information for the Tsiklon-B navigation system

SL-8 R/B was lifted into orbit during the mission ‘Kosmos-3M | Parus 19’, on board a Kosmos-3M space rocket.

The launch took place on April 7, 1979, 6:20 a.m. from 132/1 (132L).

For more information about the launch, click the button.

Launch to space Kosmos-3M | Parus 19
Kosmos-3M | Parus 19

Agency: N/A

Status: Launch Successful

Launch date: April 7, 1979, 6:20 a.m. UTC

Rocket: Kosmos-3M

Launch pad: 132/1 (132L)

Location: Plesetsk Cosmodrome, Russian Federation

...

Latest news about this satellite

There are no fresh news available about this satellite. Check back as we update our databases every day.


Newsletter sign-up

Weekly statistics, charts and insights to help you stay on top of the space industry.